Regional Weather Roundup
Issued by NWS Little Rock, AR

Home | Current Version | Previous Version | Text Only | Print | Product List | Glossary Off
Versions: 1 2 3 4 5 6 7 8 9 10 11 12 13 14 15 16 17 18 19 20 21 22 23 24 25 26 27 28 29 30 31 32 33 34 35 36 37 38 39 40 41 42 43 44 45 46 47 48 49 50

484
ASUS44 KLZK 280605
RWRLZK

WEATHER ROUNDUP FOR ARKANSAS
NATIONAL WEATHER SERVICE LITTLE ROCK AR
100 AM CDT THU JUL 28 2016

NOTE: "FAIR" INDICATES FEW OR NO CLOUDS BELOW 12,000 FEET WITH NO
SIGNIFICANT WEATHER AND/OR OBSTRUCTIONS TO VISIBILITY.

ARZ001-003-010-029-280700-
NORTHWEST ARKANSAS

CITY           SKY/WX    TMP DP  RH WIND       PRES   REMARKS
FAYETTEVILLE   PTCLDY    71  71 100 CALM      29.99R
6HR MIN TEMP:  70; 6HR MAX TEMP:  82; 6HR PCP: TRACE;

FORT SMITH     CLEAR     78  72  81 CALM      29.93S
6HR MIN TEMP:  77; 6HR MAX TEMP:  83;

HARRISON       PTCLDY    73  71  93 N3        29.99R
6HR MIN TEMP:  72; 6HR MAX TEMP:  83; 6HR PCP:  0.04;

BENTONVILLE    CLEAR     72  66  83 S5        29.99S
6HR MIN TEMP:  70; 6HR MAX TEMP:  72; 6HR PCP:  0.86;

ROGERS         PTCLDY    70  69  97 CALM      30.00R
6HR MIN TEMP:  69; 6HR MAX TEMP:  82; 6HR PCP:  0.14;

SILOAM SPGS    CLEAR     70  63  78 SE5       29.99S
6HR MIN TEMP:  70; 6HR MAX TEMP:  84; 6HR PCP:  0.09;

HIGHFILL       CLEAR     71  70  96 S7        29.98R
6HR MIN TEMP:  71; 6HR MAX TEMP:  77; 6HR PCP:  0.42;

$$

ARZ004-005-016-280700-
NORTH CENTRAL ARKANSAS

CITY           SKY/WX    TMP DP  RH WIND       PRES   REMARKS
BATESVILLE     MOCLDY    73  72  94 CALM      29.94S
6HR MIN TEMP:  73; 6HR MAX TEMP:  75;

FLIPPIN        MOCLDY    73  70  88 CALM      29.93S
6HR MIN TEMP:  73; 6HR MAX TEMP:  75; 6HR PCP:  0.03;

MTN HOME       CLOUDY    73  72  96 CALM      29.95F
6HR MIN TEMP:  72; 6HR MAX TEMP:  74; 6HR PCP:  0.01;

$$

ARZ040-041-280700-
WEST CENTRAL ARKANSAS

CITY           SKY/WX    TMP DP  RH WIND       PRES   REMARKS
MENA             N/A    N/A N/A N/A MISG        N/A
MOUNT IDA      CLOUDY    74  73  97 CALM      29.94R
6HR MIN TEMP:  74; 6HR MAX TEMP:  80;

$$

ARZ009-017-025-026-028-280700-
NORTHEAST ARKANSAS

CITY           SKY/WX    TMP DP  RH WIND       PRES   REMARKS
CORNING          N/A     75  75 100 W3        29.93R
JONESBORO      CLOUDY    77  75  93 E5        29.91S
6HR MIN TEMP:  76; 6HR MAX TEMP:  79; 6HR PCP:  0.07;

NEWPORT        CLOUDY    77  77 100 SW3       29.93F
6HR MIN TEMP:  76; 6HR MAX TEMP:  77; 6HR PCP: TRACE;

WALNUT RIDGE   CLOUDY    77  73  88 CALM      29.91S
6HR MIN TEMP:  75; 6HR MAX TEMP:  77; 6HR PCP:  0.01;

BLYTHEVILLE    LGT RAIN  76  76 100 E5        29.91F
6HR MIN TEMP:  76; 6HR MAX TEMP:  78; 6HR PCP: TRACE;

$$

ARZ022-023-033-042-044-280700-
CENTRAL ARKANSAS

CITY           SKY/WX    TMP DP  RH WIND       PRES   REMARKS
LITTLE ROCK    MOCLDY    78  73  84 SW3       29.94R
6HR MIN TEMP:  78; 6HR MAX TEMP:  82;

JACKSONVILLE   PTCLDY    76  76 100 SE2       29.93R
6HR MIN TEMP:  76; 6HR MAX TEMP:  77;

SEARCY         MOCLDY    75  75 100 SE3       29.95S
6HR MIN TEMP:  74; 6HR MAX TEMP:  77;

HOT SPRINGS    MOCLDY    76  73  91 CALM      29.95R
6HR MIN TEMP:  76; 6HR MAX TEMP:  79;

RUSSELLVILLE   CLOUDY    76  75  97 CALM      29.92S
6HR MIN TEMP:  76; 6HR MAX TEMP:  82;

$$

ARZ036-280700-
EAST ARKANSAS

CITY           SKY/WX    TMP DP  RH WIND       PRES   REMARKS
WEST MEMPHIS   LGT RAIN  76  75  97 CALM      29.91S FOG
6HR MIN TEMP:  75; 6HR MAX TEMP:  76;

$$

ARZ050-053-066-070-073-280700-
SOUTHWEST ARKANSAS

CITY           SKY/WX    TMP DP  RH WIND       PRES   REMARKS
ARKADELPHIA    FAIR      75  75 100 CALM      29.94S
6HR MIN TEMP:  73; 6HR MAX TEMP:  78;

CAMDEN         CLOUDY    75  72  88 S3        29.94F
TEXARKANA      CLOUDY    74  72  93 CALM      29.95S
6HR MIN TEMP:  74; 6HR MAX TEMP:  78;

EL DORADO      PTCLDY    75  74  96 S3        29.96S
6HR MIN TEMP:  75; 6HR MAX TEMP:  81;

DE QUEEN       FOG       74  74 100 CALM      29.93F VSB 1
6HR MIN TEMP:  74; 6HR MAX TEMP:  79;

$$

ARZ056-057-069-280700-
SOUTHEAST ARKANSAS

CITY           SKY/WX    TMP DP  RH WIND       PRES   REMARKS
PINE BLUFF     CLOUDY    74  73  97 SE3       29.94S
6HR MIN TEMP:  74; 6HR MAX TEMP:  76; 6HR PCP: TRACE;

STUTTGART      CLOUDY    75  70  83 SW6       29.95R
6HR MIN TEMP:  75; 6HR MAX TEMP:  75;

MONTICELLO     CLOUDY    77  74  90 SW9       29.95S
6HR MIN TEMP:  76; 6HR MAX TEMP:  77; 6HR PCP: TRACE;


$$






USA.gov is the U.S. government's official web portal to all federal, state and local government web resources and services.